Location: Newark
(12.4436°N, 0.6167°W)
Time: 18:31:14
(UTC+00:00)

deb Explorer IX - Pass Details

Date: 17 December 2019
Orbit: 548 x 1101 km, 38.8° (Epoch: 19 January)

Event Time Altitude Azimuth Distance (km) Brightness Sun altitude
Rises 20:52:55 0° 305° (NW) 3,691 ? -44.7°
Reaches altitude 10° 20:55:30 10° 303° (WNW) 2,803 ? -45.3°
Enters shadow 20:55:37 11° 303° (WNW) 2,764 ? -45.3°
Maximum altitude 21:02:24 70° 221° (SW) 1,144 - -46.9°
Drops below altitude 10° 21:09:41 10° 138° (SE) 2,947 - -48.5°
Sets 21:12:28 0° 136° (SE) 3,890 - -49.1°
